K7OLI-13 Weather Reports


Display with metric or nautical units.
time (UTC)temp
F
wind
direction
speed
MPH
gust
MPH
rain 1hr
in
rain 24hr
in
rain mn
in
humidity
%
barometer
mb
20260906061522 58 233 3.0 5.0 0.00 0.00 0.00 92
20260906060530 58 215 2.0 4.0 0.00 0.00 0.00 92
20260906055520 59 124 1.0 2.0 0.00 0.00 0.00 91
20260906054527 59 178 1.0 2.0 0.00 0.00 0.00 90
20260906053535 59 179 2.0 3.0 0.00 0.00 0.00 90
20260906052531 59 179 3.0 3.0 0.00 0.00 0.00 90
20260906051533 59 195 1.0 3.0 0.00 0.00 0.00 90
20260906050543 59 236 3.0 4.0 0.00 0.00 0.00 89
20260906045531 59 224 3.0 4.0 0.00 0.00 0.00 89
20260906044520 60 217 4.0 4.0 0.00 0.00 0.00 88
20260906043548 60 238 4.0 5.0 0.00 0.00 0.00 88
20260906042536 60 236 5.0 7.0 0.00 0.00 0.00 87
20260906041526 60 223 4.0 6.0 0.00 0.00 0.00 87
20260906040534 60 231 5.0 6.0 0.00 0.00 0.00 86
20260906035523 61 211 4.0 6.0 0.00 0.00 0.00 85
20260906034551 61 231 6.0 8.0 0.00 0.00 0.00 85
20260906033520 61 219 4.0 7.0 0.00 0.00 0.00 84
20260906032528 62 223 6.0 8.0 0.00 0.00 0.00 83
20260906031556 62 219 6.0 9.0 0.00 0.00 0.00 82
20260906030527 62 217 5.0 8.0 0.00 0.00 0.00 81
20260906025533 63 221 6.0 8.0 0.00 0.00 0.00 80
20260906024521 64 209 5.0 6.0 0.00 0.00 0.00 78
20260906023530 65 217 6.0 8.0 0.00 0.00 0.00 76
20260906022520 65 221 5.0 9.0 0.00 0.00 0.00 73
20260906021527 66 226 4.0 5.0 0.00 0.00 0.00 71
20260906020535 66 220 6.0 7.0 0.00 0.00 0.00 70
20260906015527 67 203 6.0 7.0 0.00 0.00 0.00 69
20260906014534 67 215 6.0 8.0 0.00 0.00 0.00 67
20260906013542 68 225 8.0 10.0 0.00 0.00 0.00 67
20260906012529 68 218 8.0 11.0 0.00 0.00 0.00 66
20260906011537 69 238 3.0 5.0 0.00 0.00 0.00 61
20260906010527 69 234 5.0 7.0 0.00 0.00 0.00 60
20260906005635 70 226 6.0 9.0 0.00 0.00 0.00 59
20260906004544 71 231 6.0 7.0 0.00 0.00 0.00 58
20260906003532 71 254 4.0 6.0 0.00 0.00 0.00 57
20260906002521 71 297 3.0 5.0 0.00 0.00 0.00 56
20260906001529 72 265 5.0 8.0 0.00 0.00 0.00 56
20260906000537 72 247 4.0 6.0 0.00 0.00 0.00 56
20260905235527 72 236 4.0 7.0 0.00 0.00 0.00 55
20260905234535 71 242 4.0 6.0 0.00 0.00 0.00 56
20260905233544 70 323 3.0 6.0 0.00 0.00 0.00 57
20260905232531 71 270 3.0 6.0 0.00 0.00 0.00 56
20260905231521 72 230 6.0 8.0 0.00 0.00 0.00 56
20260905230529 71 235 4.0 6.0 0.00 0.00 0.00 58
20260905225537 71 242 6.0 8.0 0.00 0.00 0.00 57
20260905224527 72 246 6.0 8.0 0.00 0.00 0.00 56
20260905223615 72 220 7.0 10.0 0.00 0.00 0.00 56
20260905222523 71 296 3.0 6.0 0.00 0.00 0.00 58
20260905221532 71 211 6.0 8.0 0.00 0.00 0.00 56
20260905220521 71 269 3.0 6.0 0.00 0.00 0.00 57
20260905215529 71 210 6.0 9.0 0.00 0.00 0.00 56
20260905214616 72 230 5.0 11.0 0.00 0.00 0.00 56
20260905213527 71 229 4.0 5.0 0.00 0.00 0.00 57
20260905212533 70 166 2.0 4.0 0.00 0.00 0.00 58
20260905211522 72 267 3.0 5.0 0.00 0.00 0.00 57
20260905210530 69 238 5.0 7.0 0.00 0.00 0.00 61
20260905205519 69 229 4.0 6.0 0.00 0.00 0.00 61
20260905204548 69 300 2.0 4.0 0.00 0.00 0.00 62
20260905203536 69 301 3.0 6.0 0.00 0.00 0.00 62
20260905202527 69 273 2.0 5.0 0.00 0.00 0.00 61
20260905201533 69 4 3.0 7.0 0.00 0.00 0.00 62
20260905200522 69 250 3.0 5.0 0.00 0.00 0.00 60
20260905195537 69 173 5.0 6.0 0.00 0.00 0.00 60
20260905194520 69 114 3.0 5.0 0.00 0.00 0.00 62
20260905193527 68 178 2.0 3.0 0.00 0.00 0.00 64
20260905192535 68 184 4.0 7.0 0.00 0.00 0.00 66
20260905191527 66 275 2.0 3.0 0.00 0.00 0.00 69
20260905190535 65 121 3.0 4.0 0.00 0.00 0.00 70
20260905185522 66 147 4.0 5.0 0.00 0.00 0.00 68
20260905184529 65 134 3.0 5.0 0.00 0.00 0.00 69
20260905183519 65 121 4.0 5.0 0.00 0.00 0.00 69
20260905182527 65 151 4.0 6.0 0.00 0.00 0.00 71
20260905181535 65 100 4.0 7.0 0.00 0.00 0.00 72
20260905180524 65 54 3.0 5.0 0.00 0.00 0.00 72
20260905175535 65 109 3.0 5.0 0.00 0.00 0.00 72
20260905174521 64 80 3.0 5.0 0.00 0.00 0.00 74
20260905173550 64 82 5.0 6.0 0.00 0.00 0.00 75
20260905172519 64 38 4.0 5.0 0.00 0.00 0.00 74
20260905171527 65 61 3.0 5.0 0.00 0.00 0.00 75
20260905170535 64 150 2.0 4.0 0.00 0.00 0.00 77
20260905165527 63 112 1.0 3.0 0.00 0.00 0.00 79
20260905164535 61 62 2.0 3.0 0.00 0.00 0.00 82
20260905163543 61 46 3.0 4.0 0.00 0.00 0.00 82
20260905162530 62 15 2.0 4.0 0.00 0.00 0.00 81
20260905161519 61 44 1.0 2.0 0.00 0.00 0.00 85
20260905160608 59 61 2.0 4.0 0.00 0.00 0.00 88
20260905155536 59 61 3.0 4.0 0.00 0.00 0.00 88
20260905154527 59 77 4.0 6.0 0.00 0.00 0.00 88
20260905153533 59 118 4.0 5.0 0.00 0.00 0.00 89
20260905152522 58 114 3.0 4.0 0.00 0.00 0.00 90
20260905151551 57 91 2.0 4.0 0.00 0.00 0.00 93
20260905150520 57 70 2.0 4.0 0.00 0.02 0.00 94
20260905145528 57 89 3.0 3.0 0.00 0.03 0.00 95
20260905144536 57 0.0 0.0 0.00 0.03 0.00 96
20260905143527 57 57 2.0 3.0 0.00 0.03 0.00 96
20260905142614 57 75 1.0 2.0 0.00 0.03 0.00 98
20260905141523 56 0.0 0.0 0.00 0.03 0.00 99
20260905140531 55 0.0 0.0 0.00 0.03 0.00 99
20260905135520 55 0.0 0.0 0.00 0.03 0.00 99
20260905134528 55 0.0 0.0 0.00 0.04 0.00 99
20260905133556 55 0.0 0.0 0.00 0.04 0.00 99
20260905132527 55 0.0 0.0 0.00 0.04 0.00 99
20260905131534 55 0.0 0.0 0.00 0.04 0.00 99
20260905130543 55 0.0 0.0 0.00 0.04 0.00 99
20260905125531 55 0.0 0.0 0.00 0.04 0.00 99
20260905124522 55 46 2.0 4.0 0.00 0.04 0.00 99
20260905123529 55 0.0 0.0 0.00 0.04 0.00 99
20260905122537 55 0.0 0.0 0.00 0.04 0.00 99
20260905121527 55 45 1.0 2.0 0.00 0.04 0.00 99
20260905120535 55 68 2.0 3.0 0.00 0.04 0.00 99
20260905115524 55 0.0 0.0 0.00 0.04 0.00 99
20260905114532 55 40 1.0 3.0 0.00 0.04 0.00 99
20260905113521 55 62 2.0 3.0 0.00 0.04 0.00 99
20260905112529 55 29 0.0 3.0 0.00 0.04 0.00 99
20260905111537 55 0.0 0.0 0.00 0.04 0.00 99
20260905110527 55 36 1.0 2.0 0.00 0.04 0.00 99
20260905105535 55 0.0 2.0 0.00 0.04 0.00 99
20260905104524 55 0.0 0.0 0.00 0.04 0.00 99
20260905103532 55 39 1.0 2.0 0.00 0.04 0.00 99
20260905102527 55 51 1.0 3.0 0.00 0.05 0.00 99
20260905101550 55 45 0.0 2.0 0.00 0.06 0.00 99
20260905100519 55 0.0 0.0 0.00 0.06 0.00 99
20260905095548 55 0.0 0.0 0.00 0.07 0.00 99
20260905094535 55 0.0 0.0 0.00 0.07 0.00 99
20260905093527 54 0.0 0.0 0.00 0.07 0.00 99
20260905092533 54 0.0 0.0 0.00 0.07 0.00 99
20260905091522 55 0.0 0.0 0.00 0.08 0.00 99
20260905090530 55 0.0 0.0 0.00 0.09 0.00 99
20260905085521 55 0.0 0.0 0.00 0.11 0.00 99
20260905084548 55 0.0 0.0 0.00 0.12 0.00 98
20260905083556 55 0.0 0.0 0.00 0.14 0.00 98
20260905082527 55 0.0 0.0 0.00 0.15 0.00 98
20260905081533 56 45 2.0 2.0 0.00 0.16 0.00 98
20260905080542 56 45 2.0 3.0 0.00 0.16 0.00 97
20260905075551 56 42 3.0 4.0 0.00 0.16 0.00 97
20260905074520 57 53 3.0 3.0 0.00 0.16 0.00 97
20260905073548 57 61 2.0 3.0 0.00 0.16 0.00 97
20260905072556 57 57 3.0 4.0 0.00 0.16 0.00 97
20260905071527 57 46 3.0 4.0 0.00 0.16 0.00 96
20260905070536 57 47 3.0 4.0 0.00 0.16 0.00 96
20260905065521 57 48 3.0 4.0 0.00 0.16 0.16 95
20260905064530 57 50 3.0 4.0 0.00 0.16 0.16 95
20260905063519 57 77 2.0 3.0 0.00 0.16 0.16 94
20260905062546 57 62 2.0 3.0 0.00 0.16 0.16 93